This demonstration page uses our WeatherBlox Daily Observations layout. Learn more.

Left ArrowRight Arrow

38.20091, -84.87328

Hourly Observations for February 9, 2022

Temp ( °F °C ) Dew Point ( °F °C ) Humidity (%) Winds ( mph kmh ) Pressure ( in mb ) Visibility ( mi km ) Precip ( " mm )
12:53 am 00:53 Clear 42 5.6 27 -2.8 55 55 SSW 10 17 29.99 1016 10 16 0.00 0.00
1:53 am 01:53 Clear 41 5 27 -2.8 57 57 S 8 13 29.97 1015 10 16 0.00 0.00
2:53 am 02:53 Clear 40 4.4 27 -2.8 60 60 SSW 10 17 29.96 1014 10 16 0.00 0.00
3:53 am 03:53 undefined 41 5 27 -2.8 57 57 SSW 9 15 29.93 1014 N/A 0.00 0.00
4:53 am 04:53 Clear 41 5 27 -2.8 57 57 SSW 12 19 29.91 1013 10 16 0.00 0.00
5:53 am 05:53 undefined 41 5 27 -2.8 57 57 SSW 10 17 29.91 1013 10 16 0.00 0.00
6:53 am 06:53 Clear 41 5 27 -2.8 57 57 SSW 10 17 29.90 1013 10 16 0.00 0.00
7:53 am 07:53 Mostly Sunny 42 5.6 27 -2.8 55 55 SSW 12 19 29.92 1013 10 16 0.00 0.00
8:53 am 08:53 undefined 43 6.1 28 -2.2 56 56 SSW 12 19 29.92 1013 10 16 0.00 0.00
9:53 am 09:53 Cloudy 44 6.7 28 -2.2 53 53 SSW 13 20 29.91 1013 10 16 0.00 0.00
10:53 am 10:53 Cloudy 45 7.2 29 -1.7 54 54 SSW 13 20 29.90 1013 10 16 0.00 0.00
11:53 am 11:53 Cloudy 47 8.3 30 -1.1 52 52 SSW 12 19 29.89 1012 10 16 0.00 0.00
12:53 pm 12:53 Cloudy 47 8.3 30 -1.1 52 52 SW 15 24 29.86 1011 10 16 0.00 0.00
1:53 pm 13:53 Partly Cloudy 52 11.1 32 0 47 47 WSW 9 15 29.83 1010 10 16 0.00 0.00
2:53 pm 14:53 Sunny 53 11.7 32 0 45 45 SW 14 22 29.83 1010 10 16 0.00 0.00
3:53 pm 15:53 Sunny 54 12.2 32 0 43 43 SW 12 19 29.83 1010 10 16 0.00 0.00
4:53 pm 16:53 Mostly Cloudy 54 12.2 30 -1.1 40 40 SW 10 17 29.83 1010 10 16 0.00 0.00
5:53 pm 17:53 Cloudy 48 8.9 35 1.7 61 61 SW 8 13 29.86 1011 10 16 0.00 0.00
6:53 pm 18:53 Cloudy 51 10.6 27 -2.8 39 39 W 10 17 29.89 1012 10 16 0.00 0.00
7:53 pm 19:53 Cloudy 49 9.4 28 -2.2 44 44 WSW 6 9 29.91 1013 10 16 0.00 0.00
8:53 pm 20:53 Mostly Cloudy 47 8.3 25 -3.9 42 42 W 6 9 29.92 1013 10 16 0.00 0.00
9:53 pm 21:53 Cloudy 46 7.8 25 -3.9 44 44 W 5 7 29.93 1014 10 16 0.00 0.00
10:53 pm 22:53 Cloudy 41 5 27 -2.8 57 57 Calm 29.93 1013 10 16 0.00 0.00
11:53 pm 23:53 Mostly Clear 36 2.2 26 -3.3 67 67 SSW 5 7 29.94 1014 10 16 0.00 0.00

Powered by AerisWeather